| time (UTC) | temp F | wind direction | speed MPH | gust MPH | rain 1hr in | rain 24hr in | rain mn in | humidity % | barometer mb |
| 20260506231513 | 57 | 120 | 1.0 | 5.0 | 0.00 | 0.16 | 0.16 | 93 | 1005.2 |
| 20260506230018 | 57 | 219 | 1.0 | 5.0 | 0.00 | 0.16 | 0.16 | 93 | 1005.2 |
| 20260506224525 | 57 | 210 | 0.0 | 2.0 | 0.00 | 0.16 | 0.16 | 93 | 1005.1 |
| 20260506223021 | 58 | 210 | 1.0 | 4.0 | 0.00 | 0.16 | 0.16 | 93 | 1005.2 |
| 20260506221527 | 58 | 285 | 1.0 | 4.0 | 0.00 | 0.16 | 0.16 | 93 | 1005.1 |
| 20260506220014 | 57 | 270 | 0.0 | 11.0 | 0.01 | 0.16 | 0.16 | 93 | 1005.2 |
| 20260506211525 | 57 | 268 | 1.0 | 5.0 | 0.01 | 0.16 | 0.16 | 94 | 1005.1 |
| 20260506210026 | 57 | 226 | 0.0 | 2.0 | 0.01 | 0.15 | 0.15 | 94 | 1005.2 |
| 20260506201528 | 57 | 145 | 1.0 | 4.0 | 0.05 | 0.15 | 0.15 | 94 | 1005.5 |
| 20260506200028 | 57 | 292 | 1.0 | 4.0 | 0.06 | 0.14 | 0.14 | 94 | 1005.6 |
| 20260506194527 | 57 | 230 | 0.0 | 3.0 | 0.05 | 0.12 | 0.12 | 94 | 1005.7 |
| 20260506193016 | 57 | 139 | 0.0 | 5.0 | 0.05 | 0.12 | 0.12 | 93 | 1006.0 |
| 20260506191531 | 58 | 137 | 1.0 | 3.0 | 0.04 | 0.10 | 0.10 | 93 | 1006.0 |
| 20260506190024 | 58 | 110 | 1.0 | 8.0 | 0.03 | 0.08 | 0.08 | 93 | 1006.1 |
| 20260506184527 | 58 | 148 | 1.0 | 5.0 | 0.02 | 0.07 | 0.07 | 93 | 1006.1 |
| 20260506183026 | 58 | 205 | 1.0 | 4.0 | 0.03 | 0.07 | 0.07 | 92 | 1006.2 |
| 20260506181524 | 58 | 130 | 1.0 | 5.0 | 0.03 | 0.06 | 0.06 | 92 | 1006.4 |
| 20260506180006 | 59 | 284 | 0.0 | 4.0 | 0.04 | 0.05 | 0.05 | 91 | 1006.6 |
| 20260506171533 | 59 | 137 | 0.0 | 3.0 | 0.03 | 0.03 | 0.03 | 89 | 1007.1 |
| 20260506170020 | 59 | 121 | 0.0 | 5.0 | 0.01 | 0.01 | 0.01 | 87 | 1007.6 |
| 20260506164504 | 60 | 152 | 0.0 | 2.0 | 0.00 | 0.00 | 0.00 | 85 | 1007.6 |
| 20260506163018 | 60 | 212 | 1.0 | 4.0 | 0.00 | 0.00 | 0.00 | 82 | 1007.6 |
| 20260506153005 | 62 | 139 | 0.0 | 5.0 | 0.00 | 0.00 | 0.00 | 77 | 1008.2 |
| 20260506144519 | 62 | 205 | 0.0 | 6.0 | 0.00 | 0.00 | 0.00 | 76 | 1008.4 |
| 20260506143022 | 62 | 122 | 1.0 | 10.0 | 0.00 | 0.00 | 0.00 | 76 | 1008.4 |
| 20260506141508 | 62 | 139 | 1.0 | 5.0 | 0.00 | 0.00 | 0.00 | 77 | 1008.5 |
| 20260506140010 | 63 | 301 | 1.0 | 5.0 | 0.00 | 0.00 | 0.00 | 75 | 1008.2 |
| 20260506134539 | 63 | 219 | 1.0 | 6.0 | 0.00 | 0.00 | 0.00 | 74 | 1008.0 |
| 20260506133018 | 62 | 271 | 0.0 | 4.0 | 0.00 | 0.00 | 0.00 | 78 | 1008.0 |
| 20260506131526 | 61 | 205 | 1.0 | 7.0 | 0.00 | 0.00 | 0.00 | 80 | 1008.0 |
| 20260506130008 | 60 | 275 | 2.0 | 7.0 | 0.00 | 0.00 | 0.00 | 81 | 1008.4 |
| 20260506124516 | 59 | 315 | 0.0 | 6.0 | 0.00 | 0.00 | 0.00 | 82 | 1008.5 |
| 20260506123018 | 58 | 129 | 1.0 | 4.0 | 0.00 | 0.00 | 0.00 | 84 | 1008.8 |
| 20260506121518 | 57 | 275 | 0.0 | 2.0 | 0.00 | 0.00 | 0.00 | 86 | 1008.8 |
| 20260506120024 | 56 | 228 | 1.0 | 3.0 | 0.00 | 0.00 | 0.00 | 86 | 1008.8 |
| 20260506114521 | 56 | 181 | 0.0 | 3.0 | 0.00 | 0.00 | 0.00 | 87 | 1008.7 |
| 20260506111518 | 55 | 300 | 1.0 | 2.0 | 0.00 | 0.00 | 0.00 | 88 | 1008.9 |
| 20260506110023 | 54 | 236 | 0.0 | 2.0 | 0.00 | 0.00 | 0.00 | 88 | 1008.7 |
| 20260506104523 | 53 | 124 | 0.0 | 1.0 | 0.00 | 0.00 | 0.00 | 90 | 1009.1 |
| 20260506103021 | 53 | 114 | 0.0 | 1.0 | 0.00 | 0.00 | 0.00 | 90 | 1008.8 |
| 20260506101516 | 52 | 160 | 0.0 | 2.0 | 0.00 | 0.00 | 0.00 | 90 | 1008.8 |
| 20260506100031 | 52 | 209 | 0.0 | 2.0 | 0.00 | 0.00 | 0.00 | 89 | 1008.5 |
| 20260506094524 | 52 | 130 | 0.0 | 1.0 | 0.00 | 0.00 | 0.00 | 88 | 1008.4 |
| 20260506093024 | 52 | 119 | 0.0 | 1.0 | 0.00 | 0.00 | 0.00 | 87 | 1008.4 |
| 20260506091514 | 53 | 136 | 0.0 | 2.0 | 0.00 | 0.00 | 0.00 | 87 | 1008.5 |
| 20260506090021 | 53 | 207 | 0.0 | 1.0 | 0.00 | 0.00 | 0.00 | 85 | 1008.6 |
| 20260506084524 | 53 | 141 | 0.0 | 4.0 | 0.00 | 0.00 | 0.00 | 84 | 1008.7 |
| 20260506083006 | 54 | 254 | 0.0 | 2.0 | 0.00 | 0.00 | 0.00 | 83 | 1008.6 |
| 20260506081517 | 55 | 195 | 0.0 | 2.0 | 0.00 | 0.00 | 0.00 | 82 | 1008.7 |
| 20260506073022 | 54 | 136 | 0.0 | 0.0 | 0.00 | 0.00 | 0.00 | 81 | 1008.7 |
| 20260506071513 | 55 | 222 | 0.0 | 1.0 | 0.00 | 0.00 | 0.00 | 79 | 1008.7 |
| 20260506061533 | 56 | 153 | 0.0 | 0.0 | 0.00 | 0.00 | 0.00 | 78 | 1008.6 |
| 20260506044512 | 59 | 207 | 0.0 | 2.0 | 0.00 | 0.00 | 0.00 | 70 | 1009.0 |
| 20260506043016 | 60 | 237 | 0.0 | 3.0 | 0.00 | 0.00 | 0.00 | 69 | 1009.1 |
| 20260506041518 | 60 | 242 | 0.0 | 2.0 | 0.00 | 0.00 | 0.00 | 69 | 1009.1 |
| 20260506040027 | 60 | 200 | 0.0 | 3.0 | 0.00 | 0.00 | 0.00 | 68 | 1009.2 |
| 20260506034526 | 61 | 139 | 0.0 | 4.0 | 0.00 | 0.00 | 0.00 | 67 | 1009.0 |
| 20260506033015 | 61 | 283 | 0.0 | 3.0 | 0.00 | 0.00 | 0.00 | 66 | 1009.2 |
| 20260506031526 | 62 | 131 | 1.0 | 3.0 | 0.00 | 0.00 | 0.00 | 64 | 1009.1 |
| 20260506030022 | 63 | 175 | 0.0 | 3.0 | 0.00 | 0.00 | 0.00 | 62 | 1009.0 |
| 20260506024536 | 64 | 169 | 0.0 | 4.0 | 0.00 | 0.00 | 0.00 | 61 | 1009.0 |
| 20260506023028 | 64 | 143 | 0.0 | 2.0 | 0.00 | 0.00 | 0.00 | 60 | 1009.2 |
| 20260506021514 | 64 | 94 | 1.0 | 3.0 | 0.00 | 0.00 | 0.00 | 60 | 1009.2 |
| 20260506020020 | 65 | 119 | 1.0 | 3.0 | 0.00 | 0.00 | 0.00 | 60 | 1009.1 |
| 20260506014523 | 65 | 129 | 0.0 | 3.0 | 0.00 | 0.00 | 0.00 | 60 | 1009.1 |
| 20260506013027 | 65 | 204 | 0.0 | 6.0 | 0.00 | 0.00 | 0.00 | 60 | 1009.0 |
| 20260506011555 | 65 | 215 | 0.0 | 4.0 | 0.00 | 0.00 | 0.00 | 59 | 1008.9 |
| 20260506010018 | 66 | 133 | 0.0 | 2.0 | 0.00 | 0.00 | 0.00 | 61 | 1008.8 |
| 20260506004520 | 66 | 143 | 0.0 | 2.0 | 0.00 | 0.00 | 0.00 | 58 | 1008.7 |
| 20260506003023 | 67 | 212 | 0.0 | 1.0 | 0.00 | 0.00 | 0.00 | 58 | 1008.6 |
| 20260506001525 | 68 | 157 | 0.0 | 0.0 | 0.00 | 0.00 | 0.00 | 55 | 1008.4 |
| 20260506000044 | 69 | 180 | 0.0 | 1.0 | 0.00 | 0.00 | 0.00 | 51 | 1008.3 |
| 20260505234535 | 70 | 267 | 0.0 | 4.0 | 0.00 | 0.00 | 0.00 | 51 | 1008.0 |
| 20260505233024 | 70 | 336 | 1.0 | 7.0 | 0.00 | 0.00 | 0.00 | 50 | 1007.4 |